Year,Month,Day,Hour,Minute,Value (Times are PST for windgust in km/hr)
2014,08,19,00,00,17.70
2014,08,19,00,01,19.30
2014,08,19,00,02,24.20
2014,08,19,00,03,25.70
2014,08,19,00,04,22.50
2014,08,19,00,05,17.70
2014,08,19,00,06,17.70
2014,08,19,00,07,19.30
2014,08,19,00,08,27.40
2014,08,19,00,09,25.70
2014,08,19,00,10,24.20
2014,08,19,00,11,17.70
2014,08,19,00,12,16.10
2014,08,19,00,13,17.70
2014,08,19,00,14,24.20
2014,08,19,00,15,11.30
2014,08,19,00,16,19.30
2014,08,19,00,17,19.30
2014,08,19,00,18,20.90
2014,08,19,00,19,20.90
2014,08,19,00,20,27.40
2014,08,19,00,21,19.30
2014,08,19,00,22,27.40
2014,08,19,00,23,20.90
2014,08,19,00,24,22.50
2014,08,19,00,25,16.10
2014,08,19,00,26,14.50
2014,08,19,00,27,22.50
2014,08,19,00,28,16.10
2014,08,19,00,29,25.70
2014,08,19,00,30,20.90
2014,08,19,00,31,16.10
2014,08,19,00,32,16.10
2014,08,19,00,33,20.90
2014,08,19,00,34,11.30
2014,08,19,00,35,17.70
2014,08,19,00,36,25.70
2014,08,19,00,37,16.10
2014,08,19,00,38,16.10
2014,08,19,00,39,11.30
2014,08,19,00,40,20.90
2014,08,19,00,41,19.30
2014,08,19,00,42,14.50
2014,08,19,00,43,16.10
2014,08,19,00,44,22.50
2014,08,19,00,45,24.20
2014,08,19,00,46,22.50
2014,08,19,00,47,16.10
2014,08,19,00,48,25.70
2014,08,19,00,49,17.70
2014,08,19,00,50,20.90
2014,08,19,00,51,22.50
2014,08,19,00,52,9.60
2014,08,19,00,53,24.20
2014,08,19,00,54,12.90
2014,08,19,00,55,9.60
2014,08,19,00,56,11.30
2014,08,19,00,57,8.10
2014,08,19,00,58,11.30
2014,08,19,00,59,14.50
2014,08,19,01,00,11.30
2014,08,19,01,01,20.90
2014,08,19,01,02,11.30
2014,08,19,01,03,11.30
2014,08,19,01,04,11.30
2014,08,19,01,05,8.10
2014,08,19,01,06,17.70
2014,08,19,01,07,16.10
2014,08,19,01,08,4.80
2014,08,19,01,09,11.30
2014,08,19,01,10,11.30
2014,08,19,01,11,3.20
2014,08,19,01,12,11.30
2014,08,19,01,13,9.60
2014,08,19,01,14,9.60
2014,08,19,01,15,8.10
2014,08,19,01,16,4.80
2014,08,19,01,17,11.30
2014,08,19,01,18,11.30
2014,08,19,01,19,9.60
2014,08,19,01,20,8.10
2014,08,19,01,21,14.50
2014,08,19,01,22,9.60
2014,08,19,01,23,6.40
2014,08,19,01,24,19.30
2014,08,19,01,25,20.90
2014,08,19,01,26,16.10
2014,08,19,01,27,14.50
2014,08,19,01,28,11.30
2014,08,19,01,29,9.60
2014,08,19,01,30,16.10
2014,08,19,01,31,19.30
2014,08,19,01,32,22.50
2014,08,19,01,33,17.70
2014,08,19,01,34,24.20
2014,08,19,01,35,14.50
2014,08,19,01,36,19.30
2014,08,19,01,37,17.70
2014,08,19,01,38,17.70
2014,08,19,01,39,12.90
2014,08,19,01,40,17.70
2014,08,19,01,41,30.60
2014,08,19,01,42,16.10
2014,08,19,01,43,27.40
2014,08,19,01,44,30.60
2014,08,19,01,45,30.60
2014,08,19,01,46,27.40
2014,08,19,01,47,16.10
2014,08,19,01,48,22.50
2014,08,19,01,49,24.20
2014,08,19,01,50,24.20
2014,08,19,01,51,27.40
2014,08,19,01,52,25.70
2014,08,19,01,53,24.20
2014,08,19,01,54,20.90
2014,08,19,01,55,8.10
2014,08,19,01,56,22.50
2014,08,19,01,57,22.50
2014,08,19,01,58,20.90
2014,08,19,01,59,22.50
2014,08,19,02,00,35.40
2014,08,19,02,01,33.80
2014,08,19,02,02,27.40
2014,08,19,02,03,35.40
2014,08,19,02,04,30.60
2014,08,19,02,05,30.60
2014,08,19,02,06,30.60
2014,08,19,02,07,29.00
2014,08,19,02,08,19.30
2014,08,19,02,09,17.70
2014,08,19,02,10,24.20
2014,08,19,02,11,32.20
2014,08,19,02,12,11.30
2014,08,19,02,13,9.60
2014,08,19,02,14,19.30
2014,08,19,02,15,25.70
2014,08,19,02,16,20.90
2014,08,19,02,17,25.70
2014,08,19,02,18,16.10
2014,08,19,02,19,16.10
2014,08,19,02,20,11.30
2014,08,19,02,21,25.70
2014,08,19,02,22,20.90
2014,08,19,02,23,19.30
2014,08,19,02,24,19.30
2014,08,19,02,25,17.70
2014,08,19,02,26,20.90
2014,08,19,02,27,16.10
2014,08,19,02,28,19.30
2014,08,19,02,29,22.50
2014,08,19,02,30,19.30
2014,08,19,02,31,24.20
2014,08,19,02,32,22.50
2014,08,19,02,33,17.70
2014,08,19,02,34,19.30
2014,08,19,02,35,17.70
2014,08,19,02,36,24.20
2014,08,19,02,37,19.30
2014,08,19,02,38,17.70
2014,08,19,02,39,17.70
2014,08,19,02,40,22.50
2014,08,19,02,41,25.70
2014,08,19,02,42,20.90
2014,08,19,02,43,17.70
2014,08,19,02,44,12.90
2014,08,19,02,45,20.90
2014,08,19,02,46,32.20
2014,08,19,02,47,20.90
2014,08,19,02,48,22.50
2014,08,19,02,49,25.70
2014,08,19,02,50,20.90
2014,08,19,02,51,12.90
2014,08,19,02,52,20.90
2014,08,19,02,53,22.50
2014,08,19,02,54,11.30
2014,08,19,02,55,20.90
2014,08,19,02,56,22.50
2014,08,19,02,57,14.50
2014,08,19,02,58,16.10
2014,08,19,02,59,22.50
2014,08,19,03,00,17.70
2014,08,19,03,01,4.80
2014,08,19,03,02,11.30
2014,08,19,03,03,14.50
2014,08,19,03,04,11.30
2014,08,19,03,05,22.50
2014,08,19,03,06,17.70
2014,08,19,03,07,14.50
2014,08,19,03,08,19.30
2014,08,19,03,09,14.50
2014,08,19,03,10,9.60
2014,08,19,03,11,19.30
2014,08,19,03,12,14.50
2014,08,19,03,13,9.60
2014,08,19,03,14,6.40
2014,08,19,03,15,11.30
2014,08,19,03,16,12.90
2014,08,19,03,17,9.60
2014,08,19,03,18,3.20
2014,08,19,03,19,8.10
2014,08,19,03,20,9.60
2014,08,19,03,21,9.60
2014,08,19,03,22,1.60
2014,08,19,03,23,3.20
2014,08,19,03,24,3.20
2014,08,19,03,25,1.60
2014,08,19,03,26,3.20
2014,08,19,03,27,6.40
2014,08,19,03,28,3.20
2014,08,19,03,29,3.20
2014,08,19,03,30,6.40
2014,08,19,03,31,6.40
2014,08,19,03,32,4.80
2014,08,19,03,33,6.40
2014,08,19,03,34,6.40
2014,08,19,03,35,11.30
2014,08,19,03,36,4.80
2014,08,19,03,37,8.10
2014,08,19,03,38,16.10
2014,08,19,03,39,11.30
2014,08,19,03,40,14.50
2014,08,19,03,41,11.30
2014,08,19,03,42,14.50
2014,08,19,03,43,19.30
2014,08,19,03,44,17.70
2014,08,19,03,45,20.90
2014,08,19,03,46,17.70
2014,08,19,03,47,22.50
2014,08,19,03,48,16.10
2014,08,19,03,49,17.70
2014,08,19,03,50,9.60
2014,08,19,03,51,11.30
2014,08,19,03,52,25.70
2014,08,19,03,53,20.90
2014,08,19,03,54,22.50
2014,08,19,03,55,22.50
2014,08,19,03,56,14.50
2014,08,19,03,57,17.70
2014,08,19,03,58,16.10
2014,08,19,03,59,22.50
2014,08,19,04,00,14.50
2014,08,19,04,01,19.30
2014,08,19,04,02,19.30
2014,08,19,04,03,16.10
2014,08,19,04,04,19.30
2014,08,19,04,05,17.70
2014,08,19,04,06,19.30
2014,08,19,04,07,11.30
2014,08,19,04,08,14.50
2014,08,19,04,09,11.30
2014,08,19,04,10,8.10
2014,08,19,04,11,16.10
2014,08,19,04,12,8.10
2014,08,19,04,13,12.90
2014,08,19,04,14,11.30
2014,08,19,04,15,16.10
2014,08,19,04,16,16.10
2014,08,19,04,17,16.10
2014,08,19,04,18,11.30
2014,08,19,04,19,16.10
2014,08,19,04,20,9.60
2014,08,19,04,21,11.30
2014,08,19,04,22,8.10
2014,08,19,04,23,14.50
2014,08,19,04,24,14.50
2014,08,19,04,25,16.10
2014,08,19,04,26,14.50
2014,08,19,04,27,12.90
2014,08,19,04,28,6.40
2014,08,19,04,29,14.50
2014,08,19,04,30,19.30
2014,08,19,04,31,11.30
2014,08,19,04,32,14.50
2014,08,19,04,33,8.10
2014,08,19,04,34,9.60
2014,08,19,04,35,9.60
2014,08,19,04,36,16.10
2014,08,19,04,37,14.50
2014,08,19,04,38,16.10
2014,08,19,04,39,14.50
2014,08,19,04,40,12.90
2014,08,19,04,41,11.30
2014,08,19,04,42,16.10
2014,08,19,04,43,11.30
2014,08,19,04,44,17.70
2014,08,19,04,45,19.30
2014,08,19,04,46,19.30
2014,08,19,04,47,22.50
2014,08,19,04,48,22.50
2014,08,19,04,49,12.90
2014,08,19,04,50,11.30
2014,08,19,04,51,6.40
2014,08,19,04,52,12.90
2014,08,19,04,53,16.10
2014,08,19,04,54,6.40
2014,08,19,04,55,19.30
2014,08,19,04,56,16.10
2014,08,19,04,57,14.50
2014,08,19,04,58,4.80
2014,08,19,04,59,8.10
2014,08,19,05,00,14.50
2014,08,19,05,01,19.30
2014,08,19,05,02,11.30
2014,08,19,05,03,16.10
2014,08,19,05,04,12.90
2014,08,19,05,05,11.30
2014,08,19,05,06,19.30
2014,08,19,05,07,17.70
2014,08,19,05,08,20.90
2014,08,19,05,09,14.50
2014,08,19,05,10,19.30
2014,08,19,05,11,16.10
2014,08,19,05,12,17.70
2014,08,19,05,13,14.50
2014,08,19,05,14,9.60
2014,08,19,05,15,12.90
2014,08,19,05,16,19.30
2014,08,19,05,17,17.70
2014,08,19,05,18,12.90
2014,08,19,05,19,19.30
2014,08,19,05,20,19.30
2014,08,19,05,21,16.10
2014,08,19,05,22,19.30
2014,08,19,05,23,19.30
2014,08,19,05,24,20.90
2014,08,19,05,25,19.30
2014,08,19,05,26,17.70
2014,08,19,05,27,14.50
2014,08,19,05,28,16.10
2014,08,19,05,29,17.70
2014,08,19,05,30,17.70
2014,08,19,05,31,19.30
2014,08,19,05,32,19.30
2014,08,19,05,33,11.30
2014,08,19,05,34,19.30
2014,08,19,05,35,17.70
2014,08,19,05,36,14.50
2014,08,19,05,37,17.70
2014,08,19,05,38,14.50
2014,08,19,05,39,9.60
2014,08,19,05,40,14.50
2014,08,19,05,41,17.70
2014,08,19,05,42,17.70
2014,08,19,05,43,16.10
2014,08,19,05,44,16.10
2014,08,19,05,45,20.90
2014,08,19,05,46,14.50
2014,08,19,05,47,8.10
2014,08,19,05,48,16.10
2014,08,19,05,49,9.60
2014,08,19,05,50,20.90
2014,08,19,05,51,16.10
2014,08,19,05,52,6.40
2014,08,19,05,53,6.40
2014,08,19,05,54,6.40
2014,08,19,05,55,4.80
2014,08,19,05,56,6.40
2014,08,19,05,57,8.10
2014,08,19,05,58,8.10
2014,08,19,05,59,9.60
2014,08,19,06,00,16.10
2014,08,19,06,01,11.30
2014,08,19,06,02,1.60
2014,08,19,06,03,12.90
2014,08,19,06,04,9.60
2014,08,19,06,05,4.80
2014,08,19,06,06,9.60
2014,08,19,06,07,9.60
2014,08,19,06,08,6.40
2014,08,19,06,09,4.80
2014,08,19,06,10,8.10
2014,08,19,06,11,3.20
2014,08,19,06,12,6.40
2014,08,19,06,13,11.30
2014,08,19,06,14,8.10
2014,08,19,06,15,4.80
2014,08,19,06,16,6.40
2014,08,19,06,17,9.60
2014,08,19,06,18,6.40
2014,08,19,06,19,8.10
2014,08,19,06,20,8.10
2014,08,19,06,23,14.50
2014,08,19,06,24,11.30
2014,08,19,06,25,11.30
2014,08,19,06,26,19.30
2014,08,19,06,27,12.90
2014,08,19,06,28,14.50
2014,08,19,06,29,17.70
2014,08,19,06,30,11.30
2014,08,19,06,31,16.10
2014,08,19,06,32,17.70
2014,08,19,06,33,14.50
2014,08,19,06,34,14.50
2014,08,19,06,35,9.60
2014,08,19,06,36,11.30
2014,08,19,06,37,9.60
2014,08,19,06,38,11.30
2014,08,19,06,39,8.10
2014,08,19,06,40,9.60
2014,08,19,06,41,8.10
2014,08,19,06,42,3.20
2014,08,19,06,43,3.20
2014,08,19,06,44,11.30
2014,08,19,06,45,16.10
2014,08,19,06,46,16.10
2014,08,19,06,47,16.10
2014,08,19,06,48,11.30
2014,08,19,06,49,8.10
2014,08,19,06,50,6.40
2014,08,19,06,52,8.10
2014,08,19,06,53,4.80
2014,08,19,06,54,3.20
2014,08,19,06,55,4.80
2014,08,19,06,56,4.80
2014,08,19,06,57,4.80
2014,08,19,06,58,4.80
2014,08,19,06,59,6.40
2014,08,19,07,00,9.60
2014,08,19,07,01,9.60
2014,08,19,07,02,11.30
2014,08,19,07,03,6.40
2014,08,19,07,04,11.30
2014,08,19,07,05,8.10
2014,08,19,07,06,8.10
2014,08,19,07,07,12.90
2014,08,19,07,08,9.60
2014,08,19,07,09,12.90
2014,08,19,07,10,11.30
2014,08,19,07,11,17.70
2014,08,19,07,12,8.10
2014,08,19,07,13,11.30
2014,08,19,07,14,11.30
2014,08,19,07,15,11.30
2014,08,19,07,16,9.60
2014,08,19,07,17,11.30
2014,08,19,07,18,9.60
2014,08,19,07,19,11.30
2014,08,19,07,20,9.60
2014,08,19,07,21,9.60
2014,08,19,07,22,16.10
2014,08,19,07,23,6.40
2014,08,19,07,24,14.50
2014,08,19,07,25,11.30
2014,08,19,07,26,12.90
2014,08,19,07,27,16.10
2014,08,19,07,28,9.60
2014,08,19,07,29,12.90
2014,08,19,07,30,8.10
2014,08,19,07,31,9.60
2014,08,19,07,32,16.10
2014,08,19,07,33,20.90
2014,08,19,07,34,14.50
2014,08,19,07,35,16.10
2014,08,19,07,36,16.10
2014,08,19,07,37,12.90
2014,08,19,07,38,11.30
2014,08,19,07,39,19.30
2014,08,19,07,40,16.10
2014,08,19,07,41,24.20
2014,08,19,07,42,25.70
2014,08,19,07,43,22.50
2014,08,19,07,44,27.40
2014,08,19,07,45,33.80
2014,08,19,07,46,19.30
2014,08,19,07,47,11.30
2014,08,19,07,48,20.90
2014,08,19,07,49,16.10
2014,08,19,07,50,12.90
2014,08,19,07,51,20.90
2014,08,19,07,52,19.30
2014,08,19,07,53,22.50
2014,08,19,07,54,22.50
2014,08,19,07,55,24.20
2014,08,19,07,56,20.90
2014,08,19,07,57,20.90
2014,08,19,07,58,25.70
2014,08,19,07,59,14.50
2014,08,19,08,00,9.60
2014,08,19,08,01,17.70
2014,08,19,08,02,14.50
2014,08,19,08,03,16.10
2014,08,19,08,04,17.70
2014,08,19,08,05,19.30
2014,08,19,08,06,24.20
2014,08,19,08,07,25.70
2014,08,19,08,08,22.50
2014,08,19,08,09,25.70
2014,08,19,08,10,29.00
2014,08,19,08,11,19.30
2014,08,19,08,12,32.20
2014,08,19,08,13,19.30
2014,08,19,08,14,17.70
2014,08,19,08,15,6.40
2014,08,19,08,16,14.50
2014,08,19,08,17,19.30
2014,08,19,08,18,25.70
2014,08,19,08,19,27.40
2014,08,19,08,20,25.70
2014,08,19,08,21,22.50
2014,08,19,08,22,27.40
2014,08,19,08,23,4.80
2014,08,19,08,24,16.10
2014,08,19,08,25,22.50
2014,08,19,08,26,20.90
2014,08,19,08,27,20.90
2014,08,19,08,28,48.30
2014,08,19,08,29,17.70
2014,08,19,08,30,8.10
2014,08,19,08,31,16.10
2014,08,19,08,32,9.60
2014,08,19,08,33,4.80
2014,08,19,08,34,22.50
2014,08,19,08,35,25.70
2014,08,19,08,36,6.40
2014,08,19,08,37,17.70
2014,08,19,08,38,14.50
2014,08,19,08,39,19.30
2014,08,19,08,40,20.90
2014,08,19,08,41,29.00
2014,08,19,08,42,20.90
2014,08,19,08,43,30.60
2014,08,19,08,44,29.00
2014,08,19,08,45,12.90
2014,08,19,08,46,25.70
2014,08,19,08,47,16.10
2014,08,19,08,48,29.00
2014,08,19,08,49,17.70
2014,08,19,08,50,14.50
2014,08,19,08,51,11.30
2014,08,19,08,52,14.50
2014,08,19,08,53,32.20
2014,08,19,08,54,17.70
2014,08,19,08,55,17.70
2014,08,19,08,56,20.90
2014,08,19,08,57,24.20
2014,08,19,08,58,14.50
2014,08,19,08,59,17.70
2014,08,19,09,00,20.90
2014,08,19,09,01,11.30
2014,08,19,09,02,30.60
2014,08,19,09,03,32.20
2014,08,19,09,04,19.30
2014,08,19,09,05,24.20
2014,08,19,09,06,24.20
2014,08,19,09,07,17.70
2014,08,19,09,08,16.10
2014,08,19,09,09,27.40
2014,08,19,09,10,22.50
2014,08,19,09,11,16.10
2014,08,19,09,12,24.20
2014,08,19,09,13,37.00
2014,08,19,09,14,17.70
2014,08,19,09,15,20.90
2014,08,19,09,16,19.30
2014,08,19,09,17,20.90
2014,08,19,09,18,17.70
2014,08,19,09,19,22.50
2014,08,19,09,20,11.30
2014,08,19,09,21,6.40
2014,08,19,09,22,8.10
2014,08,19,09,23,8.10
2014,08,19,09,24,25.70
2014,08,19,09,25,27.40
2014,08,19,09,26,40.20
2014,08,19,09,27,43.50
2014,08,19,09,28,48.30
2014,08,19,09,29,9.60
2014,08,19,09,30,12.90
2014,08,19,09,31,40.20
2014,08,19,09,32,30.60
2014,08,19,09,33,41.80
2014,08,19,09,34,25.70
2014,08,19,09,35,29.00
2014,08,19,09,36,27.40
2014,08,19,09,37,19.30
2014,08,19,09,38,20.90
2014,08,19,09,39,19.30
2014,08,19,09,40,11.30
2014,08,19,09,41,11.30
2014,08,19,09,42,17.70
2014,08,19,09,43,29.00
2014,08,19,09,44,35.40
2014,08,19,09,45,32.20
2014,08,19,09,46,40.20
2014,08,19,09,47,24.20
2014,08,19,09,48,24.20
2014,08,19,09,49,27.40
2014,08,19,09,50,9.60
2014,08,19,09,51,9.60
2014,08,19,09,52,8.10
2014,08,19,09,53,20.90
2014,08,19,09,54,16.10
2014,08,19,09,55,22.50
2014,08,19,09,56,24.20
2014,08,19,09,57,19.30
2014,08,19,09,58,27.40
2014,08,19,09,59,14.50
2014,08,19,10,00,20.90
2014,08,19,10,01,25.70
2014,08,19,10,02,17.70
2014,08,19,10,03,16.10
2014,08,19,10,04,19.30
2014,08,19,10,05,16.10
2014,08,19,10,06,22.50
2014,08,19,10,07,29.00
2014,08,19,10,08,19.30
2014,08,19,10,09,20.90
2014,08,19,10,10,19.30
2014,08,19,10,11,20.90
2014,08,19,10,12,8.10
2014,08,19,10,13,12.90
2014,08,19,10,14,22.50
2014,08,19,10,15,14.50
2014,08,19,10,16,22.50
2014,08,19,10,17,22.50
2014,08,19,10,18,14.50
2014,08,19,10,19,19.30
2014,08,19,10,20,14.50
2014,08,19,10,21,19.30
2014,08,19,10,22,11.30
2014,08,19,10,23,11.30
2014,08,19,10,24,11.30
2014,08,19,10,25,9.60
2014,08,19,10,26,9.60
2014,08,19,10,27,20.90
2014,08,19,10,28,17.70
2014,08,19,10,29,9.60
2014,08,19,10,30,8.10
2014,08,19,10,31,14.50
2014,08,19,10,32,14.50
2014,08,19,10,33,3.20
2014,08,19,10,34,4.80
2014,08,19,10,35,6.40
2014,08,19,10,36,8.10
2014,08,19,10,37,8.10
2014,08,19,10,38,8.10
2014,08,19,10,39,14.50
2014,08,19,10,40,9.60
2014,08,19,10,41,8.10
2014,08,19,10,42,6.40
2014,08,19,10,43,6.40
2014,08,19,10,44,9.60
2014,08,19,10,45,4.80
2014,08,19,10,46,4.80
2014,08,19,10,47,6.40
2014,08,19,10,48,11.30
2014,08,19,10,49,17.70
2014,08,19,10,50,4.80
2014,08,19,10,51,9.60
2014,08,19,10,52,8.10
2014,08,19,10,53,11.30
2014,08,19,10,54,9.60
2014,08,19,10,55,14.50
2014,08,19,10,56,19.30
2014,08,19,10,57,8.10
2014,08,19,10,58,8.10
2014,08,19,10,59,9.60
2014,08,19,11,00,6.40
2014,08,19,11,01,6.40
2014,08,19,11,02,11.30
2014,08,19,11,03,8.10
2014,08,19,11,04,14.50
2014,08,19,11,05,3.20
2014,08,19,11,06,8.10
2014,08,19,11,07,6.40
2014,08,19,11,08,14.50
2014,08,19,11,09,9.60
2014,08,19,11,10,12.90
2014,08,19,11,11,11.30
2014,08,19,11,12,8.10
2014,08,19,11,13,16.10
2014,08,19,11,14,9.60
2014,08,19,11,15,8.10
2014,08,19,11,16,9.60
2014,08,19,11,17,4.80
2014,08,19,11,18,14.50
2014,08,19,11,19,4.80
2014,08,19,11,20,24.20
2014,08,19,11,21,17.70
2014,08,19,11,22,16.10
2014,08,19,11,23,16.10
2014,08,19,11,24,4.80
2014,08,19,11,25,8.10
2014,08,19,11,26,4.80
2014,08,19,11,27,8.10
2014,08,19,11,28,19.30
2014,08,19,11,29,6.40
2014,08,19,11,30,9.60
2014,08,19,11,31,1.60
2014,08,19,11,32,6.40
2014,08,19,11,33,6.40
2014,08,19,11,37,11.30
2014,08,19,11,38,3.20
2014,08,19,11,39,1.60
2014,08,19,11,41,1.60
2014,08,19,11,45,1.60
2014,08,19,11,52,1.60
2014,08,19,12,02,1.60
2014,08,19,12,03,22.50
2014,08,19,12,04,6.40
2014,08,19,12,22,1.60
2014,08,19,12,23,8.10
2014,08,19,12,43,6.40
2014,08,19,12,50,6.40
2014,08,19,12,56,3.20
2014,08,19,13,08,3.20
2014,08,19,13,09,9.60
2014,08,19,13,10,11.30
2014,08,19,13,11,6.40
2014,08,19,13,12,8.10
2014,08,19,13,13,11.30
2014,08,19,13,14,9.60
2014,08,19,13,15,20.90
2014,08,19,13,16,17.70
2014,08,19,13,17,14.50
2014,08,19,13,18,8.10
2014,08,19,13,19,16.10
2014,08,19,13,20,16.10
2014,08,19,13,21,9.60
2014,08,19,13,22,16.10
2014,08,19,13,23,6.40
2014,08,19,13,24,19.30
2014,08,19,13,25,11.30
2014,08,19,13,26,11.30
2014,08,19,13,27,11.30
2014,08,19,13,28,8.10
2014,08,19,13,29,11.30
2014,08,19,13,30,6.40
2014,08,19,13,31,9.60
2014,08,19,13,32,8.10
2014,08,19,13,33,8.10
2014,08,19,13,34,6.40
2014,08,19,13,35,6.40
2014,08,19,13,36,12.90
2014,08,19,13,37,8.10
2014,08,19,13,38,8.10
2014,08,19,13,39,11.30
2014,08,19,13,40,9.60
2014,08,19,13,41,14.50
2014,08,19,13,42,6.40
2014,08,19,13,44,1.60
2014,08,19,13,45,1.60
2014,08,19,13,46,1.60
2014,08,19,13,47,1.60
2014,08,19,13,49,1.60
2014,08,19,13,58,6.40
2014,08,19,13,59,1.60
2014,08,19,14,01,4.80
2014,08,19,14,06,1.60
2014,08,19,14,07,3.20
2014,08,19,14,08,8.10
2014,08,19,14,09,1.60
2014,08,19,14,11,4.80
2014,08,19,14,12,8.10
2014,08,19,14,13,3.20
2014,08,19,14,14,8.10
2014,08,19,14,15,6.40
2014,08,19,14,16,9.60
2014,08,19,14,17,9.60
2014,08,19,14,18,3.20
2014,08,19,14,19,1.60
2014,08,19,14,20,9.60
2014,08,19,14,21,9.60
2014,08,19,14,22,6.40
2014,08,19,14,23,8.10
2014,08,19,14,24,4.80
2014,08,19,14,25,9.60
2014,08,19,14,26,8.10
2014,08,19,14,27,6.40
2014,08,19,14,28,3.20
2014,08,19,14,29,3.20
2014,08,19,14,30,3.20
2014,08,19,14,31,8.10
2014,08,19,14,32,8.10
2014,08,19,14,33,9.60
2014,08,19,14,34,16.10
2014,08,19,14,35,9.60
2014,08,19,14,36,11.30
2014,08,19,14,37,6.40
2014,08,19,14,38,8.10
2014,08,19,14,39,6.40
2014,08,19,14,40,8.10
2014,08,19,14,41,8.10
2014,08,19,14,42,1.60
2014,08,19,14,43,11.30
2014,08,19,14,44,3.20
2014,08,19,14,45,3.20
2014,08,19,14,46,1.60
2014,08,19,14,47,3.20
2014,08,19,14,48,4.80
2014,08,19,14,49,4.80
2014,08,19,14,50,8.10
2014,08,19,14,51,11.30
2014,08,19,14,52,9.60
2014,08,19,14,53,3.20
2014,08,19,14,54,1.60
2014,08,19,14,55,4.80
2014,08,19,14,56,1.60
2014,08,19,14,57,8.10
2014,08,19,14,58,11.30
2014,08,19,14,59,6.40
2014,08,19,15,00,4.80
2014,08,19,15,01,3.20
2014,08,19,15,02,6.40
2014,08,19,15,03,6.40
2014,08,19,15,05,8.10
2014,08,19,15,06,6.40
2014,08,19,15,07,4.80
2014,08,19,15,08,4.80
2014,08,19,15,09,8.10
2014,08,19,15,10,8.10
2014,08,19,15,11,8.10
2014,08,19,15,12,9.60
2014,08,19,15,13,8.10
2014,08,19,15,14,8.10
2014,08,19,15,15,4.80
2014,08,19,15,16,8.10
2014,08,19,15,17,8.10
2014,08,19,15,18,6.40
2014,08,19,15,19,6.40
2014,08,19,15,20,4.80
2014,08,19,15,21,1.60
2014,08,19,15,22,3.20
2014,08,19,15,23,3.20
2014,08,19,15,24,6.40
2014,08,19,15,25,8.10
2014,08,19,15,26,6.40
2014,08,19,15,27,6.40
2014,08,19,15,28,9.60
2014,08,19,15,29,6.40
2014,08,19,15,31,9.60
2014,08,19,15,32,6.40
2014,08,19,15,33,4.80
2014,08,19,15,34,4.80
2014,08,19,15,35,6.40
2014,08,19,15,36,4.80
2014,08,19,15,37,8.10
2014,08,19,15,38,4.80
2014,08,19,15,40,3.20
2014,08,19,15,41,3.20
2014,08,19,15,42,3.20
2014,08,19,15,44,1.60
2014,08,19,15,45,1.60
2014,08,19,15,47,4.80
2014,08,19,15,48,8.10
2014,08,19,15,49,6.40
2014,08,19,15,50,1.60
2014,08,19,15,52,3.20
2014,08,19,15,53,1.60
2014,08,19,15,55,3.20
2014,08,19,15,56,4.80
2014,08,19,15,57,6.40
2014,08,19,15,58,3.20
2014,08,19,15,59,6.40
2014,08,19,16,01,1.60
2014,08,19,16,02,11.30
2014,08,19,16,03,8.10
2014,08,19,16,04,6.40
2014,08,19,16,05,3.20
2014,08,19,16,06,6.40
2014,08,19,16,07,6.40
2014,08,19,16,08,3.20
2014,08,19,16,09,4.80
2014,08,19,16,10,6.40
2014,08,19,16,11,8.10
2014,08,19,16,12,8.10
2014,08,19,16,13,1.60
2014,08,19,16,14,4.80
2014,08,19,16,15,1.60
2014,08,19,16,16,3.20
2014,08,19,16,18,4.80
2014,08,19,16,19,6.40
2014,08,19,16,20,3.20
2014,08,19,16,22,1.60
2014,08,19,16,24,1.60
2014,08,19,16,27,1.60
2014,08,19,16,28,1.60
2014,08,19,16,29,4.80
2014,08,19,16,30,1.60
2014,08,19,16,31,3.20
2014,08,19,16,32,3.20
2014,08,19,16,33,1.60
2014,08,19,16,34,3.20
2014,08,19,16,35,8.10
2014,08,19,16,36,8.10
2014,08,19,16,37,3.20
2014,08,19,16,38,9.60
2014,08,19,16,39,3.20
2014,08,19,16,40,6.40
2014,08,19,16,41,4.80
2014,08,19,16,42,8.10
2014,08,19,16,43,6.40
2014,08,19,16,44,9.60
2014,08,19,16,45,6.40
2014,08,19,16,46,8.10
2014,08,19,16,47,8.10
2014,08,19,16,48,4.80
2014,08,19,16,49,6.40
2014,08,19,16,50,6.40
2014,08,19,16,51,3.20
2014,08,19,16,52,3.20
2014,08,19,16,53,3.20
2014,08,19,16,54,1.60
2014,08,19,16,56,1.60
2014,08,19,16,57,3.20
2014,08,19,16,59,1.60
2014,08,19,17,01,1.60
2014,08,19,17,02,4.80
2014,08,19,17,03,3.20
2014,08,19,17,04,3.20
2014,08,19,17,05,8.10
2014,08,19,17,06,8.10
2014,08,19,17,07,6.40
2014,08,19,17,08,3.20
2014,08,19,17,09,1.60
2014,08,19,17,10,3.20
2014,08,19,17,11,8.10
2014,08,19,17,12,4.80
2014,08,19,17,13,3.20
2014,08,19,17,15,6.40
2014,08,19,17,16,8.10
2014,08,19,17,17,4.80
2014,08,19,17,18,6.40
2014,08,19,17,19,6.40
2014,08,19,17,20,8.10
2014,08,19,17,21,1.60
2014,08,19,17,23,4.80
2014,08,19,17,24,9.60
2014,08,19,17,25,9.60
2014,08,19,17,26,4.80
2014,08,19,17,27,9.60
2014,08,19,17,28,3.20
2014,08,19,17,29,3.20
2014,08,19,17,30,3.20
2014,08,19,17,31,8.10
2014,08,19,17,32,8.10
2014,08,19,17,33,6.40
2014,08,19,17,34,3.20
2014,08,19,17,35,8.10
2014,08,19,17,36,6.40
2014,08,19,17,37,4.80
2014,08,19,17,38,3.20
2014,08,19,17,39,3.20
2014,08,19,17,40,3.20
2014,08,19,17,41,3.20
2014,08,19,17,42,3.20
2014,08,19,17,43,1.60
2014,08,19,17,45,4.80
2014,08,19,17,46,1.60
2014,08,19,17,48,1.60
2014,08,19,17,49,6.40
2014,08,19,17,50,4.80
2014,08,19,17,51,4.80
2014,08,19,17,52,3.20
2014,08,19,17,53,1.60
2014,08,19,17,54,6.40
2014,08,19,17,55,8.10
2014,08,19,17,58,3.20
2014,08,19,17,59,1.60
2014,08,19,18,00,1.60
2014,08,19,18,01,1.60
2014,08,19,18,02,1.60
2014,08,19,18,03,1.60
2014,08,19,18,04,3.20
2014,08,19,18,05,4.80
2014,08,19,18,06,3.20
2014,08,19,18,07,3.20
2014,08,19,18,09,4.80
2014,08,19,18,10,1.60
2014,08,19,18,12,4.80
2014,08,19,18,15,6.40
2014,08,19,18,16,8.10
2014,08,19,18,17,6.40
2014,08,19,18,18,1.60
2014,08,19,18,19,1.60
2014,08,19,18,20,1.60
2014,08,19,18,22,1.60
2014,08,19,18,23,1.60
2014,08,19,18,24,1.60
2014,08,19,18,25,1.60
2014,08,19,18,26,4.80
2014,08,19,18,27,4.80
2014,08,19,18,29,1.60
2014,08,19,18,32,4.80
2014,08,19,18,35,4.80
2014,08,19,18,36,3.20
2014,08,19,18,37,3.20
2014,08,19,18,38,9.60
2014,08,19,18,40,3.20
2014,08,19,18,41,1.60
2014,08,19,18,42,1.60
2014,08,19,18,43,3.20
2014,08,19,18,44,3.20
2014,08,19,18,45,1.60
2014,08,19,18,46,1.60
2014,08,19,18,47,4.80
2014,08,19,18,48,6.40
2014,08,19,18,49,4.80
2014,08,19,18,50,4.80
2014,08,19,18,51,1.60
2014,08,19,18,52,3.20
2014,08,19,18,53,1.60
2014,08,19,18,54,3.20
2014,08,19,18,55,1.60
2014,08,19,18,56,3.20
2014,08,19,18,57,3.20
2014,08,19,18,58,1.60
2014,08,19,18,59,1.60
2014,08,19,19,00,3.20
2014,08,19,19,01,3.20
2014,08,19,19,03,4.80
2014,08,19,19,04,4.80
2014,08,19,19,05,3.20
2014,08,19,19,06,3.20
2014,08,19,19,07,1.60
2014,08,19,19,11,1.60
2014,08,19,19,14,1.60
2014,08,19,19,18,1.60
2014,08,19,19,20,4.80
2014,08,19,19,21,4.80
2014,08,19,19,24,1.60
2014,08,19,19,25,3.20
2014,08,19,19,26,1.60
2014,08,19,19,27,3.20
2014,08,19,19,32,1.60
2014,08,19,19,35,1.60
2014,08,19,19,36,3.20
2014,08,19,19,37,1.60
2014,08,19,19,38,4.80
2014,08,19,19,39,3.20
2014,08,19,19,40,4.80
2014,08,19,19,41,1.60
2014,08,19,19,42,1.60
2014,08,19,19,51,4.80
2014,08,19,19,56,1.60
2014,08,19,19,57,3.20
2014,08,19,19,58,1.60
2014,08,19,19,59,1.60
2014,08,19,20,00,6.40
2014,08,19,20,01,3.20
2014,08,19,20,02,3.20
2014,08,19,20,03,14.50
2014,08,19,20,04,9.60
2014,08,19,20,05,4.80
2014,08,19,20,07,3.20
2014,08,19,20,09,1.60
2014,08,19,20,10,6.40
2014,08,19,20,11,3.20
2014,08,19,20,12,1.60
2014,08,19,20,13,3.20
2014,08,19,20,14,1.60
2014,08,19,20,15,3.20
2014,08,19,20,20,1.60
2014,08,19,20,27,1.60
2014,08,19,20,28,1.60
2014,08,19,20,29,6.40
2014,08,19,20,30,1.60
2014,08,19,20,39,1.60
2014,08,19,20,40,1.60
2014,08,19,20,41,1.60
2014,08,19,20,54,6.40
2014,08,19,20,55,3.20
2014,08,19,20,57,3.20